This is the latest recevied weather packets stored in our database for station/object HEBOWX. If no packets are shown the sender has not sent any weather packets the latest 10 day(s).
| Time | Temp. | Humidity | Pressure | Rain* | Wind** | Luminosity | Snow |
|---|---|---|---|---|---|---|---|
| 1777241406 | 11.11° C | 46% | 1008.3 hPa | 0 mm | - | - | - |
| 1777241106 | 11.11° C | 46% | 1008 hPa | 0 mm | - | - | - |
| 1777240806 | 11.11° C | 45% | 1008 hPa | 0 mm | - | - | - |
| 1777240506 | 11.11° C | 45% | 1008 hPa | 0 mm | - | - | - |
| 1777240206 | 11.11° C | 45% | 1007.9 hPa | 0 mm | - | - | - |
| 1777239906 | 11.11° C | 46% | 1008 hPa | 0 mm | - | - | - |
| 1777239606 | 11.11° C | 44% | 1007.8 hPa | 0 mm | - | - | - |
| 1777239307 | 11.11° C | 41% | 1007.8 hPa | 0 mm | - | - | - |
| 1777239006 | 11.67° C | 43% | 1007.8 hPa | 0 mm | - | - | - |
| 1777238706 | 11.67° C | 41% | 1007.8 hPa | 0 mm | - | - | - |
| 1777238406 | 11.67° C | 43% | 1007.7 hPa | 0 mm | - | - | - |
| 1777238106 | 11.67° C | 42% | 1007.7 hPa | 0 mm | - | - | - |
| 1777237806 | 11.67° C | 41% | 1007.7 hPa | 0 mm | - | - | - |
| 1777237506 | 11.67° C | 41% | 1007.8 hPa | 0 mm | - | - | - |
| 1777237206 | 11.67° C | 1% | 1007.7 hPa | 0 mm | - | - | - |
| 1777236906 | 11.67° C | 1% | 1007.8 hPa | 0 mm | - | - | - |
| 1777236606 | 11.67° C | 33% | 1007.6 hPa | 0 mm | - | - | - |
| 1777236306 | 11.67° C | 35% | 1007.9 hPa | 0 mm | - | - | - |
| 1777236006 | 11.67° C | 35% | 1007.6 hPa | 0 mm | - | - | - |
| 1777235706 | 11.67° C | 34% | 1007.6 hPa | 0 mm | - | - | - |
| 1777235406 | 11.67° C | 31% | 1007.6 hPa | 0 mm | - | - | - |
| 1777235107 | 11.67° C | 32% | 1007.6 hPa | 0 mm | - | - | - |
| 1777234806 | 11.67° C | 36% | 1007.6 hPa | 0 mm | - | - | - |
| 1777234507 | 11.67° C | 37% | 1007.6 hPa | 0 mm | - | - | - |
| 1777234206 | 11.67° C | 37% | 1007.7 hPa | 0 mm | - | - | - |
* Rain latest hour (hover to see other rain measurements)
** Current wind speed in m/s (hover to see current wind gust speed)